Starlink 35940

operational
NORAD ID: 66617 Int'l Des: 2025-271 Owner: SPXS Country: US Constellation: starlink
LEOCIRCULAR

About Starlink 35940

Description loading...

Live Position

Loading 3D Globe...

Upcoming Passes

Altitude History

Altitude vs Time

uPlot chart will show altitude changes over time

Two-Line Element Set

1 66617U 25271A 26063.45678603 .00012823 00000-0 44430-3 0 9993
2 66617 53.1607 164.3799 0001252 44.1757 315.9344 15.30201134 16766
Epoch: Mar 4, 2026 • Age: 23 hours

Current Status

Altitude 482.6 km
Velocity 7.62 km/s
Sub-Earth Point -25.81°S, 12.28°W
Launch Date Nov 23, 2025
Age 0.2 years
Type internet

Technical Details

Classification Payload
Mass 575.00 kg
Dry Mass 530.00 kg
Total Mass 575.00 kg
Length 0.30 m
Diameter 4.10 m
Span 29.00 m
Shape Box + pan
Manufacturer SPXS
Bus Type Starlink V2MO
Phase Status In Orbit
Owner/State SPXS/US

Large Constellations

Loading constellations...